Year,Month,Day,Hour,Minute,Value (Times are PST for insolation in W/m^2)
2016,08,03,00,00,0.00
2016,08,03,00,01,0.00
2016,08,03,00,02,0.00
2016,08,03,00,03,0.00
2016,08,03,00,04,0.00
2016,08,03,00,05,0.00
2016,08,03,00,06,0.00
2016,08,03,00,07,0.00
2016,08,03,00,08,0.00
2016,08,03,00,09,0.00
2016,08,03,00,10,0.00
2016,08,03,00,11,0.00
2016,08,03,00,12,0.00
2016,08,03,00,13,0.00
2016,08,03,00,14,0.00
2016,08,03,00,15,0.00
2016,08,03,00,16,0.00
2016,08,03,00,17,0.00
2016,08,03,00,18,0.00
2016,08,03,00,19,0.00
2016,08,03,00,20,0.00
2016,08,03,00,21,0.00
2016,08,03,00,22,0.00
2016,08,03,00,23,0.00
2016,08,03,00,24,0.00
2016,08,03,00,25,0.00
2016,08,03,00,26,0.00
2016,08,03,00,27,0.00
2016,08,03,00,28,0.00
2016,08,03,00,29,0.00
2016,08,03,00,30,0.00
2016,08,03,00,31,0.00
2016,08,03,00,32,0.00
2016,08,03,00,33,0.00
2016,08,03,00,34,0.00
2016,08,03,00,35,0.00
2016,08,03,00,36,0.00
2016,08,03,00,37,0.00
2016,08,03,00,38,0.00
2016,08,03,00,39,0.00
2016,08,03,00,40,0.00
2016,08,03,00,41,0.00
2016,08,03,00,42,0.00
2016,08,03,00,43,0.00
2016,08,03,00,44,0.00
2016,08,03,00,45,0.00
2016,08,03,00,46,0.00
2016,08,03,00,47,0.00
2016,08,03,00,48,0.00
2016,08,03,00,49,0.00
2016,08,03,00,50,0.00
2016,08,03,00,51,0.00
2016,08,03,00,52,0.00
2016,08,03,00,53,0.00
2016,08,03,00,54,0.00
2016,08,03,00,55,0.00
2016,08,03,00,56,0.00
2016,08,03,00,57,0.00
2016,08,03,00,58,0.00
2016,08,03,00,59,0.00
2016,08,03,01,00,0.00
2016,08,03,01,01,0.00
2016,08,03,01,02,0.00
2016,08,03,01,03,0.00
2016,08,03,01,04,0.00
2016,08,03,01,05,0.00
2016,08,03,01,06,0.00
2016,08,03,01,07,0.00
2016,08,03,01,08,0.00
2016,08,03,01,09,0.00
2016,08,03,01,10,0.00
2016,08,03,01,11,0.00
2016,08,03,01,12,0.00
2016,08,03,01,13,0.00
2016,08,03,01,14,0.00
2016,08,03,01,15,0.00
2016,08,03,01,16,0.00
2016,08,03,01,17,0.00
2016,08,03,01,18,0.00
2016,08,03,01,19,0.00
2016,08,03,01,20,0.00
2016,08,03,01,21,0.00
2016,08,03,01,22,0.00
2016,08,03,01,23,0.00
2016,08,03,01,24,0.00
2016,08,03,01,25,0.00
2016,08,03,01,26,0.00
2016,08,03,01,27,0.00
2016,08,03,01,28,0.00
2016,08,03,01,29,0.00
2016,08,03,01,30,0.00
2016,08,03,01,31,0.00
2016,08,03,01,32,0.00
2016,08,03,01,33,0.00
2016,08,03,01,34,0.00
2016,08,03,01,35,0.00
2016,08,03,01,36,0.00
2016,08,03,01,37,0.00
2016,08,03,01,38,0.00
2016,08,03,01,39,0.00
2016,08,03,01,40,0.00
2016,08,03,01,41,0.00
2016,08,03,01,42,0.00
2016,08,03,01,43,0.00
2016,08,03,01,44,0.00
2016,08,03,01,45,0.00
2016,08,03,01,46,0.00
2016,08,03,01,47,0.00
2016,08,03,01,48,0.00
2016,08,03,01,49,0.00
2016,08,03,01,50,0.00
2016,08,03,01,51,0.00
2016,08,03,01,52,0.00
2016,08,03,01,53,0.00
2016,08,03,01,54,0.00
2016,08,03,01,55,0.00
2016,08,03,01,56,0.00
2016,08,03,01,57,0.00
2016,08,03,01,58,0.00
2016,08,03,01,59,0.00
2016,08,03,02,00,0.00
2016,08,03,02,01,0.00
2016,08,03,02,02,0.00
2016,08,03,02,03,0.00
2016,08,03,02,04,0.00
2016,08,03,02,05,0.00
2016,08,03,02,06,0.00
2016,08,03,02,07,0.00
2016,08,03,02,08,0.00
2016,08,03,02,09,0.00
2016,08,03,02,10,0.00
2016,08,03,02,11,0.00
2016,08,03,02,12,0.00
2016,08,03,02,13,0.00
2016,08,03,02,14,0.00
2016,08,03,02,15,0.00
2016,08,03,02,16,0.00
2016,08,03,02,17,0.00
2016,08,03,02,18,0.00
2016,08,03,02,19,0.00
2016,08,03,02,20,0.00
2016,08,03,02,21,0.00
2016,08,03,02,22,0.00
2016,08,03,02,23,0.00
2016,08,03,02,24,0.00
2016,08,03,02,25,0.00
2016,08,03,02,26,0.00
2016,08,03,02,27,0.00
2016,08,03,02,28,0.00
2016,08,03,02,29,0.00
2016,08,03,02,30,0.00
2016,08,03,02,31,0.00
2016,08,03,02,32,0.00
2016,08,03,02,33,0.00
2016,08,03,02,34,0.00
2016,08,03,02,35,0.00
2016,08,03,02,36,0.00
2016,08,03,02,37,0.00
2016,08,03,02,38,0.00
2016,08,03,02,39,0.00
2016,08,03,02,40,0.00
2016,08,03,02,41,0.00
2016,08,03,02,42,0.00
2016,08,03,02,43,0.00
2016,08,03,02,44,0.00
2016,08,03,02,45,0.00
2016,08,03,02,46,0.00
2016,08,03,02,47,0.00
2016,08,03,02,48,0.00
2016,08,03,02,49,0.00
2016,08,03,02,50,0.00
2016,08,03,02,51,0.00
2016,08,03,02,52,0.00
2016,08,03,02,53,0.00
2016,08,03,02,54,0.00
2016,08,03,02,55,0.00
2016,08,03,02,56,0.00
2016,08,03,02,57,0.00
2016,08,03,02,58,0.00
2016,08,03,02,59,0.00
2016,08,03,03,00,0.00
2016,08,03,03,01,0.00
2016,08,03,03,02,0.00
2016,08,03,03,03,0.00
2016,08,03,03,04,0.00
2016,08,03,03,05,0.00
2016,08,03,03,06,0.00
2016,08,03,03,07,0.00
2016,08,03,03,08,0.00
2016,08,03,03,09,0.00
2016,08,03,03,10,0.00
2016,08,03,03,11,0.00
2016,08,03,03,12,0.00
2016,08,03,03,13,0.00
2016,08,03,03,14,0.00
2016,08,03,03,15,0.00
2016,08,03,03,16,0.00
2016,08,03,03,17,0.00
2016,08,03,03,18,0.00
2016,08,03,03,19,0.00
2016,08,03,03,20,0.00
2016,08,03,03,21,0.00
2016,08,03,03,22,0.00
2016,08,03,03,23,0.00
2016,08,03,03,24,0.00
2016,08,03,03,25,0.00
2016,08,03,03,26,0.00
2016,08,03,03,27,0.00
2016,08,03,03,28,0.00
2016,08,03,03,29,0.00
2016,08,03,03,30,0.00
2016,08,03,03,31,0.00
2016,08,03,03,32,0.00
2016,08,03,03,33,0.00
2016,08,03,03,34,0.00
2016,08,03,03,35,0.00
2016,08,03,03,36,0.00
2016,08,03,03,37,0.00
2016,08,03,03,38,0.00
2016,08,03,03,39,0.00
2016,08,03,03,40,0.00
2016,08,03,03,41,0.00
2016,08,03,03,42,0.00
2016,08,03,03,43,0.00
2016,08,03,03,44,0.00
2016,08,03,03,45,0.00
2016,08,03,03,46,0.00
2016,08,03,03,47,0.00
2016,08,03,03,48,0.00
2016,08,03,03,49,0.00
2016,08,03,03,50,0.00
2016,08,03,03,51,0.00
2016,08,03,03,52,0.00
2016,08,03,03,53,0.00
2016,08,03,03,54,0.00
2016,08,03,03,55,0.00
2016,08,03,03,56,0.00
2016,08,03,03,57,0.00
2016,08,03,03,58,0.00
2016,08,03,03,59,0.00
2016,08,03,04,00,0.00
2016,08,03,04,01,0.00
2016,08,03,04,02,0.00
2016,08,03,04,03,0.00
2016,08,03,05,04,0.00
2016,08,03,05,05,0.00
2016,08,03,05,06,0.00
2016,08,03,05,07,0.00
2016,08,03,05,08,0.00
2016,08,03,05,09,0.00
2016,08,03,05,10,0.00
2016,08,03,05,11,0.00
2016,08,03,05,12,0.00
2016,08,03,05,13,0.00
2016,08,03,05,14,0.00
2016,08,03,05,15,0.00
2016,08,03,05,16,0.00
2016,08,03,05,17,0.00
2016,08,03,05,18,0.00
2016,08,03,05,19,0.00
2016,08,03,05,20,0.00
2016,08,03,05,21,0.00
2016,08,03,05,22,0.00
2016,08,03,05,23,0.00
2016,08,03,05,24,0.00
2016,08,03,05,25,0.00
2016,08,03,05,26,0.00
2016,08,03,05,27,0.00
2016,08,03,05,28,0.00
2016,08,03,05,29,0.00
2016,08,03,05,30,0.00
2016,08,03,05,31,0.00
2016,08,03,05,32,0.00
2016,08,03,05,33,0.00
2016,08,03,05,34,0.00
2016,08,03,05,35,0.00
2016,08,03,05,36,0.00
2016,08,03,05,37,0.00
2016,08,03,05,38,0.00
2016,08,03,05,39,0.00
2016,08,03,05,40,0.00
2016,08,03,05,41,0.00
2016,08,03,05,42,0.00
2016,08,03,05,43,0.00
2016,08,03,05,44,0.00
2016,08,03,05,45,0.00
2016,08,03,05,46,0.00
2016,08,03,05,47,0.00
2016,08,03,05,48,0.00
2016,08,03,05,49,0.00
2016,08,03,05,50,0.00
2016,08,03,05,51,0.00
2016,08,03,05,52,0.00
2016,08,03,05,53,0.00
2016,08,03,05,54,0.00
2016,08,03,05,55,0.00
2016,08,03,05,56,0.00
2016,08,03,05,57,0.00
2016,08,03,05,58,0.00
2016,08,03,05,59,0.00
2016,08,03,06,00,0.00
2016,08,03,06,01,0.00
2016,08,03,06,02,0.00
2016,08,03,06,03,0.00
2016,08,03,06,04,0.00
2016,08,03,06,05,0.00
2016,08,03,06,06,0.00
2016,08,03,06,07,5.00
2016,08,03,06,08,5.00
2016,08,03,06,09,5.00
2016,08,03,06,10,5.00
2016,08,03,06,11,5.00
2016,08,03,06,12,5.00
2016,08,03,06,13,5.00
2016,08,03,06,14,5.60
2016,08,03,06,15,7.00
2016,08,03,06,16,7.00
2016,08,03,06,17,7.00
2016,08,03,06,18,7.00
2016,08,03,06,19,7.00
2016,08,03,06,20,7.70
2016,08,03,06,21,9.00
2016,08,03,06,22,9.00
2016,08,03,06,23,9.00
2016,08,03,06,24,10.90
2016,08,03,06,25,11.00
2016,08,03,06,26,11.00
2016,08,03,06,27,11.60
2016,08,03,06,28,12.00
2016,08,03,06,29,12.00
2016,08,03,06,30,12.00
2016,08,03,06,31,12.50
2016,08,03,06,32,14.00
2016,08,03,06,33,14.00
2016,08,03,06,34,14.00
2016,08,03,06,35,15.70
2016,08,03,06,36,16.00
2016,08,03,06,37,16.00
2016,08,03,06,38,16.80
2016,08,03,06,39,18.00
2016,08,03,06,40,18.00
2016,08,03,06,41,18.90
2016,08,03,06,42,19.30
2016,08,03,06,43,21.00
2016,08,03,06,44,21.00
2016,08,03,06,45,22.20
2016,08,03,06,46,23.00
2016,08,03,06,47,24.80
2016,08,03,06,48,25.20
2016,08,03,06,49,26.00
2016,08,03,06,50,26.90
2016,08,03,06,51,28.00
2016,08,03,06,52,28.00
2016,08,03,06,53,29.80
2016,08,03,06,54,30.40
2016,08,03,06,55,32.30
2016,08,03,06,56,33.00
2016,08,03,06,57,33.00
2016,08,03,06,58,33.00
2016,08,03,06,59,34.80
2016,08,03,07,00,35.00
2016,08,03,07,01,35.70
2016,08,03,07,02,37.00
2016,08,03,07,03,37.00
2016,08,03,07,04,38.60
2016,08,03,07,05,40.00
2016,08,03,07,06,40.50
2016,08,03,07,07,42.00
2016,08,03,07,08,43.00
2016,08,03,07,09,44.00
2016,08,03,07,10,45.60
2016,08,03,07,11,47.00
2016,08,03,07,12,47.50
2016,08,03,07,13,49.70
2016,08,03,07,14,52.00
2016,08,03,07,15,53.70
2016,08,03,07,16,55.70
2016,08,03,07,17,58.00
2016,08,03,07,18,58.00
2016,08,03,07,19,58.00
2016,08,03,07,20,59.00
2016,08,03,07,21,60.00
2016,08,03,07,22,61.70
2016,08,03,07,23,63.60
2016,08,03,07,24,67.50
2016,08,03,07,25,69.40
2016,08,03,07,26,70.00
2016,08,03,07,27,70.00
2016,08,03,07,28,71.70
2016,08,03,07,29,72.30
2016,08,03,07,30,74.00
2016,08,03,07,31,74.00
2016,08,03,07,32,74.00
2016,08,03,07,33,72.50
2016,08,03,07,34,70.20
2016,08,03,07,35,68.60
2016,08,03,07,36,66.30
2016,08,03,07,37,63.60
2016,08,03,07,38,60.90
2016,08,03,07,39,60.00
2016,08,03,07,40,60.00
2016,08,03,07,41,60.40
2016,08,03,07,42,62.30
2016,08,03,07,43,64.00
2016,08,03,07,44,66.30
2016,08,03,07,45,68.50
2016,08,03,07,46,69.10
2016,08,03,07,47,70.00
2016,08,03,07,48,70.00
2016,08,03,07,49,71.00
2016,08,03,07,50,73.40
2016,08,03,07,51,74.00
2016,08,03,07,52,74.20
2016,08,03,07,53,76.20
2016,08,03,07,54,78.50
2016,08,03,07,55,82.50
2016,08,03,07,56,88.20
2016,08,03,07,57,92.50
2016,08,03,07,58,97.10
2016,08,03,07,59,101.10
2016,08,03,08,00,106.80
2016,08,03,08,01,113.80
2016,08,03,08,02,119.50
2016,08,03,08,03,126.90
2016,08,03,08,04,132.00
2016,08,03,08,05,130.80
2016,08,03,08,06,128.80
2016,08,03,08,07,132.20
2016,08,03,08,08,132.50
2016,08,03,08,09,133.70
2016,08,03,08,10,134.00
2016,08,03,08,11,134.30
2016,08,03,08,12,135.90
2016,08,03,08,13,139.40
2016,08,03,08,14,144.70
2016,08,03,08,15,183.10
2016,08,03,08,16,150.60
2016,08,03,08,17,142.80
2016,08,03,08,18,165.90
2016,08,03,08,19,191.00
2016,08,03,08,20,244.30
2016,08,03,08,21,238.00
2016,08,03,08,22,239.40
2016,08,03,08,23,267.00
2016,08,03,08,24,338.10
2016,08,03,08,25,425.00
2016,08,03,08,26,271.10
2016,08,03,08,27,247.40
2016,08,03,08,28,402.30
2016,08,03,08,29,395.20
2016,08,03,08,30,395.10
2016,08,03,08,31,396.00
2016,08,03,08,32,396.80
2016,08,03,08,33,398.90
2016,08,03,08,34,398.40
2016,08,03,08,35,398.80
2016,08,03,08,36,407.00
2016,08,03,08,37,419.10
2016,08,03,08,38,438.50
2016,08,03,08,39,407.00
2016,08,03,08,40,443.80
2016,08,03,08,41,456.00
2016,08,03,08,42,464.30
2016,08,03,08,43,464.60
2016,08,03,08,44,465.70
2016,08,03,08,45,466.50
2016,08,03,08,46,471.60
2016,08,03,08,47,473.00
2016,08,03,08,48,473.00
2016,08,03,08,49,473.00
2016,08,03,08,50,467.00
2016,08,03,08,51,459.60
2016,08,03,08,52,461.30
2016,08,03,08,53,462.90
2016,08,03,08,54,465.20
2016,08,03,08,55,467.50
2016,08,03,08,56,469.00
2016,08,03,08,57,471.00
2016,08,03,08,58,471.60
2016,08,03,08,59,472.10
2016,08,03,09,00,471.00
2016,08,03,09,01,472.60
2016,08,03,09,02,474.90
2016,08,03,09,03,476.80
2016,08,03,09,04,480.70
2016,08,03,09,05,482.50
2016,08,03,09,06,484.30
2016,08,03,09,07,488.90
2016,08,03,09,08,493.80
2016,08,03,09,09,497.40
2016,08,03,09,10,499.00
2016,08,03,09,11,501.60
2016,08,03,09,12,507.90
2016,08,03,09,13,512.20
2016,08,03,09,14,515.20
2016,08,03,09,15,519.00
2016,08,03,09,16,511.60
2016,08,03,09,17,502.90
2016,08,03,09,18,486.80
2016,08,03,09,19,530.00
2016,08,03,09,20,558.50
2016,08,03,09,21,530.80
2016,08,03,09,22,465.00
2016,08,03,09,23,417.10
2016,08,03,09,24,373.00
2016,08,03,09,25,481.80
2016,08,03,09,26,501.00
2016,08,03,09,27,515.70
2016,08,03,09,28,550.00
2016,08,03,09,29,550.00
2016,08,03,09,30,557.70
2016,08,03,09,31,561.00
2016,08,03,09,32,559.00
2016,08,03,09,33,560.20
2016,08,03,09,34,563.00
2016,08,03,09,35,563.00
2016,08,03,09,36,563.70
2016,08,03,09,37,565.80
2016,08,03,09,38,568.00
2016,08,03,09,39,567.40
2016,08,03,09,40,567.00
2016,08,03,09,41,568.00
2016,08,03,09,42,566.50
2016,08,03,09,43,566.10
2016,08,03,09,44,568.00
2016,08,03,09,45,568.00
2016,08,03,09,46,569.50
2016,08,03,09,47,571.00
2016,08,03,09,48,572.50
2016,08,03,09,49,573.10
2016,08,03,09,50,575.40
2016,08,03,09,51,578.00
2016,08,03,09,52,582.00
2016,08,03,09,53,584.00
2016,08,03,09,54,586.50
2016,08,03,09,55,590.60
2016,08,03,09,56,589.80
2016,08,03,09,57,592.80
2016,08,03,09,58,596.10
2016,08,03,09,59,598.00
2016,08,03,10,00,598.80
2016,08,03,10,01,601.10
2016,08,03,10,02,603.50
2016,08,03,10,03,606.20
2016,08,03,10,04,608.00
2016,08,03,10,05,611.40
2016,08,03,10,06,614.60
2016,08,03,10,07,616.90
2016,08,03,10,08,618.20
2016,08,03,10,09,622.30
2016,08,03,10,10,625.10
2016,08,03,10,11,627.50
2016,08,03,10,12,628.00
2016,08,03,10,13,631.60
2016,08,03,10,14,636.20
2016,08,03,10,15,640.80
2016,08,03,10,16,644.80
2016,08,03,10,17,649.10
2016,08,03,10,18,653.80
2016,08,03,10,19,657.00
2016,08,03,10,20,657.00
2016,08,03,10,21,658.90
2016,08,03,10,22,662.20
2016,08,03,10,23,663.00
2016,08,03,10,24,665.90
2016,08,03,10,25,668.80
2016,08,03,10,26,666.50
2016,08,03,10,27,674.00
2016,08,03,10,28,680.20
2016,08,03,10,29,687.20
2016,08,03,10,30,693.00
2016,08,03,10,31,702.80
2016,08,03,10,32,711.40
2016,08,03,10,33,714.50
2016,08,03,10,34,717.70
2016,08,03,10,35,719.00
2016,08,03,10,36,719.30
2016,08,03,10,37,722.40
2016,08,03,10,38,723.20
2016,08,03,10,39,688.80
2016,08,03,10,40,614.80
2016,08,03,10,41,597.70
2016,08,03,10,42,616.10
2016,08,03,10,43,774.30
2016,08,03,10,44,758.20
2016,08,03,10,45,747.40
2016,08,03,10,46,735.80
2016,08,03,10,47,725.80
2016,08,03,10,48,716.20
2016,08,03,10,49,712.00
2016,08,03,10,50,712.00
2016,08,03,10,51,710.90
2016,08,03,10,52,713.70
2016,08,03,10,53,715.00
2016,08,03,10,54,719.50
2016,08,03,10,55,725.80
2016,08,03,10,56,733.80
2016,08,03,10,57,741.80
2016,08,03,10,58,749.90
2016,08,03,10,59,753.80
2016,08,03,11,00,759.80
2016,08,03,11,01,774.20
2016,08,03,11,02,788.20
2016,08,03,11,03,799.80
2016,08,03,11,04,820.20
2016,08,03,11,05,844.30
2016,08,03,11,06,855.20
2016,08,03,11,07,872.20
2016,08,03,11,08,893.50
2016,08,03,11,09,915.10
2016,08,03,11,10,909.00
2016,08,03,11,11,936.50
2016,08,03,11,12,939.00
2016,08,03,11,13,771.00
2016,08,03,11,14,483.00
2016,08,03,11,15,795.00
2016,08,03,11,16,944.10
2016,08,03,11,17,922.00
2016,08,03,11,18,910.60
2016,08,03,11,19,881.50
2016,08,03,11,20,861.50
2016,08,03,11,21,860.40
2016,08,03,11,22,856.00
2016,08,03,11,23,864.50
2016,08,03,11,24,885.20
2016,08,03,11,25,900.60
2016,08,03,11,26,906.90
2016,08,03,11,27,888.20
2016,08,03,11,28,873.30
2016,08,03,11,29,857.50
2016,08,03,11,30,853.80
2016,08,03,11,31,860.40
2016,08,03,11,32,879.70
2016,08,03,11,33,864.50
2016,08,03,11,34,897.30
2016,08,03,11,35,907.80
2016,08,03,11,36,913.20
2016,08,03,11,37,915.10
2016,08,03,11,38,914.00
2016,08,03,11,39,839.00
2016,08,03,11,40,819.80
2016,08,03,11,41,930.80
2016,08,03,11,42,945.20
2016,08,03,11,43,979.80
2016,08,03,11,44,985.80
2016,08,03,11,45,953.20
2016,08,03,11,46,934.20
2016,08,03,11,47,933.00
2016,08,03,11,48,926.30
2016,08,03,11,49,908.00
2016,08,03,11,50,898.10
2016,08,03,11,51,910.20
2016,08,03,11,52,935.60
2016,08,03,11,53,921.00
2016,08,03,11,54,921.00
2016,08,03,11,55,654.50
2016,08,03,11,56,438.70
2016,08,03,11,57,466.00
2016,08,03,11,58,415.60
2016,08,03,11,59,533.50
2016,08,03,12,00,908.40
2016,08,03,12,01,916.00
2016,08,03,12,02,916.00
2016,08,03,12,03,468.80
2016,08,03,12,04,411.50
2016,08,03,12,05,902.00
2016,08,03,12,06,902.00
2016,08,03,12,07,902.00
2016,08,03,12,08,888.00
2016,08,03,12,09,882.00
2016,08,03,12,10,882.00
2016,08,03,12,11,882.00
2016,08,03,12,12,882.00
2016,08,03,12,13,882.00
2016,08,03,12,14,434.70
2016,08,03,12,15,297.60
2016,08,03,12,16,295.50
2016,08,03,12,17,327.00
2016,08,03,12,18,590.60
2016,08,03,12,19,947.60
2016,08,03,12,20,944.00
2016,08,03,12,21,942.30
2016,08,03,12,22,974.50
2016,08,03,12,23,977.00
2016,08,03,12,24,687.70
2016,08,03,12,25,310.60
2016,08,03,12,26,322.60
2016,08,03,12,27,406.50
2016,08,03,12,28,437.40
2016,08,03,12,29,387.00
2016,08,03,12,30,387.00
2016,08,03,12,31,442.80
2016,08,03,12,32,431.20
2016,08,03,12,33,441.80
2016,08,03,12,34,951.00
2016,08,03,12,35,951.00
2016,08,03,12,36,659.00
2016,08,03,12,37,352.70
2016,08,03,12,38,339.40
2016,08,03,12,39,336.70
2016,08,03,12,40,355.50
2016,08,03,12,41,376.20
2016,08,03,12,42,373.00
2016,08,03,12,43,492.60
2016,08,03,12,44,603.40
2016,08,03,12,45,655.20
2016,08,03,12,46,719.00
2016,08,03,12,47,581.00
2016,08,03,12,48,367.70
2016,08,03,12,49,384.40
2016,08,03,12,50,400.00
2016,08,03,12,51,412.10
2016,08,03,12,52,506.00
2016,08,03,12,53,656.40
2016,08,03,12,54,882.00
2016,08,03,12,55,882.00
2016,08,03,12,56,769.00
2016,08,03,12,57,749.00
2016,08,03,12,58,725.30
2016,08,03,12,59,678.50
2016,08,03,13,00,689.00
2016,08,03,13,01,931.20
2016,08,03,13,02,1035.00
2016,08,03,13,03,877.00
2016,08,03,13,04,877.00
2016,08,03,13,05,877.00
2016,08,03,13,06,877.00
2016,08,03,13,07,877.00
2016,08,03,13,08,698.60
2016,08,03,13,09,634.40
2016,08,03,13,10,612.00
2016,08,03,13,11,612.00
2016,08,03,13,12,612.00
2016,08,03,13,13,612.00
2016,08,03,13,14,599.00
2016,08,03,13,15,336.80
2016,08,03,13,16,284.90
2016,08,03,13,17,303.50
2016,08,03,13,18,274.50
2016,08,03,13,19,264.00
2016,08,03,13,20,296.70
2016,08,03,13,21,888.40
2016,08,03,13,22,898.00
2016,08,03,13,23,898.00
2016,08,03,13,24,898.00
2016,08,03,13,25,898.00
2016,08,03,13,26,267.90
2016,08,03,13,27,216.00
2016,08,03,13,28,216.00
2016,08,03,13,29,558.10
2016,08,03,13,30,843.60
2016,08,03,13,31,854.50
2016,08,03,13,32,881.00
2016,08,03,13,33,898.00
2016,08,03,13,34,919.00
2016,08,03,13,35,919.00
2016,08,03,13,36,919.00
2016,08,03,13,37,908.80
2016,08,03,13,38,907.00
2016,08,03,13,39,912.50
2016,08,03,13,40,915.40
2016,08,03,13,41,915.60
2016,08,03,13,42,909.50
2016,08,03,13,43,879.80
2016,08,03,13,44,871.80
2016,08,03,13,45,828.80
2016,08,03,13,46,770.00
2016,08,03,13,47,825.80
2016,08,03,13,48,874.80
2016,08,03,13,49,883.50
2016,08,03,13,50,852.70
2016,08,03,13,51,851.80
2016,08,03,13,52,891.00
2016,08,03,13,53,780.60
2016,08,03,13,54,707.00
2016,08,03,13,55,830.30
2016,08,03,13,56,844.00
2016,08,03,13,57,833.90
2016,08,03,13,58,836.50
2016,08,03,13,59,864.90
2016,08,03,14,00,843.00
2016,08,03,14,01,829.90
2016,08,03,14,02,817.00
2016,08,03,14,03,817.00
2016,08,03,14,04,808.50
2016,08,03,14,05,801.30
2016,08,03,14,06,802.00
2016,08,03,14,07,807.70
2016,08,03,14,08,816.20
2016,08,03,14,09,806.80
2016,08,03,14,10,788.00
2016,08,03,14,11,791.20
2016,08,03,14,12,793.00
2016,08,03,14,13,794.50
2016,08,03,14,14,791.00
2016,08,03,14,15,789.70
2016,08,03,14,16,785.80
2016,08,03,14,17,784.00
2016,08,03,14,18,780.60
2016,08,03,14,19,778.70
2016,08,03,14,20,777.60
2016,08,03,14,21,777.30
2016,08,03,14,22,773.30
2016,08,03,14,23,770.60
2016,08,03,14,24,770.00
2016,08,03,14,25,771.70
2016,08,03,14,26,770.00
2016,08,03,14,27,768.20
2016,08,03,14,28,764.30
2016,08,03,14,29,763.00
2016,08,03,14,30,763.00
2016,08,03,14,31,762.40
2016,08,03,14,32,759.00
2016,08,03,14,33,759.00
2016,08,03,14,34,759.00
2016,08,03,14,35,759.00
2016,08,03,14,36,754.40
2016,08,03,14,37,751.80
2016,08,03,14,38,750.40
2016,08,03,14,39,747.00
2016,08,03,14,40,744.40
2016,08,03,14,41,746.20
2016,08,03,14,42,745.10
2016,08,03,14,43,744.00
2016,08,03,14,44,742.60
2016,08,03,14,45,739.00
2016,08,03,14,46,738.00
2016,08,03,14,47,738.00
2016,08,03,14,48,736.70
2016,08,03,14,49,733.00
2016,08,03,14,50,731.60
2016,08,03,14,51,729.00
2016,08,03,14,52,728.30
2016,08,03,14,53,726.30
2016,08,03,14,54,723.90
2016,08,03,14,55,722.50
2016,08,03,14,56,724.00
2016,08,03,14,57,725.00
2016,08,03,14,58,723.20
2016,08,03,14,59,719.50
2016,08,03,15,00,719.00
2016,08,03,15,01,719.00
2016,08,03,15,02,718.20
2016,08,03,15,03,715.90
2016,08,03,15,04,715.00
2016,08,03,15,05,712.30
2016,08,03,15,06,710.00
2016,08,03,15,07,709.10
2016,08,03,15,08,706.10
2016,08,03,15,09,705.00
2016,08,03,15,10,705.00
2016,08,03,15,11,703.20
2016,08,03,15,12,703.00
2016,08,03,15,13,702.40
2016,08,03,15,14,699.60
2016,08,03,15,15,696.80
2016,08,03,15,16,696.00
2016,08,03,15,17,693.30
2016,08,03,15,18,692.60
2016,08,03,15,19,689.60
2016,08,03,15,20,687.00
2016,08,03,15,21,686.40
2016,08,03,15,22,683.00
2016,08,03,15,23,680.20
2016,08,03,15,24,679.80
2016,08,03,15,25,679.00
2016,08,03,15,26,678.00
2016,08,03,15,27,677.00
2016,08,03,15,28,673.80
2016,08,03,15,29,672.90
2016,08,03,15,30,671.00
2016,08,03,15,31,669.80
2016,08,03,15,32,668.00
2016,08,03,15,33,665.40
2016,08,03,15,34,664.00
2016,08,03,15,35,662.80
2016,08,03,15,36,661.00
2016,08,03,15,37,659.40
2016,08,03,15,38,655.40
2016,08,03,15,39,652.70
2016,08,03,15,40,652.00
2016,08,03,15,41,649.90
2016,08,03,15,42,648.50
2016,08,03,15,43,645.00
2016,08,03,15,44,642.60
2016,08,03,15,45,642.30
2016,08,03,15,46,640.30
2016,08,03,15,47,639.70
2016,08,03,15,48,638.00
2016,08,03,15,49,637.20
2016,08,03,15,50,633.20
2016,08,03,15,51,632.50
2016,08,03,15,52,629.30
2016,08,03,15,53,628.00
2016,08,03,15,54,627.40
2016,08,03,15,55,624.20
2016,08,03,15,56,620.20
2016,08,03,15,57,620.60
2016,08,03,15,58,619.10
2016,08,03,15,59,616.20
2016,08,03,16,00,612.00
2016,08,03,16,01,607.80
2016,08,03,16,02,605.70
2016,08,03,16,03,605.20
2016,08,03,16,04,599.60
2016,08,03,16,05,597.60
2016,08,03,16,06,594.20
2016,08,03,16,07,598.00
2016,08,03,16,08,594.10
2016,08,03,16,09,591.20
2016,08,03,16,10,591.80
2016,08,03,16,11,589.90
2016,08,03,16,12,585.00
2016,08,03,16,13,582.00
2016,08,03,16,14,580.50
2016,08,03,16,15,578.30
2016,08,03,16,16,569.40
2016,08,03,16,17,567.10
2016,08,03,16,18,568.30
2016,08,03,16,19,564.90
2016,08,03,16,20,564.00
2016,08,03,16,21,565.30
2016,08,03,16,22,557.90
2016,08,03,16,23,560.30
2016,08,03,16,24,551.00
2016,08,03,16,25,547.40
2016,08,03,16,26,545.50
2016,08,03,16,27,547.00
2016,08,03,16,28,533.80
2016,08,03,16,29,525.70
2016,08,03,16,30,502.00
2016,08,03,16,31,475.60
2016,08,03,16,32,440.10
2016,08,03,16,33,396.00
2016,08,03,16,34,334.60
2016,08,03,16,35,283.10
2016,08,03,16,36,228.00
2016,08,03,16,37,179.40
2016,08,03,16,38,138.90
2016,08,03,16,39,110.80
2016,08,03,16,40,95.50
2016,08,03,16,41,89.90
2016,08,03,16,42,87.00
2016,08,03,16,43,84.10
2016,08,03,16,44,79.60
2016,08,03,16,45,75.60
2016,08,03,16,46,71.50
2016,08,03,16,47,69.60
2016,08,03,16,48,69.00
2016,08,03,16,49,69.00
2016,08,03,16,50,69.00
2016,08,03,16,51,68.70
2016,08,03,16,52,67.00
2016,08,03,16,53,67.00
2016,08,03,16,54,67.00
2016,08,03,16,55,67.00
2016,08,03,16,56,67.00
2016,08,03,16,57,66.70
2016,08,03,16,58,65.00
2016,08,03,16,59,65.00
2016,08,03,17,00,65.00
2016,08,03,17,01,65.00
2016,08,03,17,02,65.00
2016,08,03,17,03,64.70
2016,08,03,17,04,63.00
2016,08,03,17,05,63.00
2016,08,03,17,06,63.00
2016,08,03,17,07,63.00
2016,08,03,17,08,63.00
2016,08,03,17,09,63.00
2016,08,03,17,10,63.00
2016,08,03,17,11,63.00
2016,08,03,17,12,63.00
2016,08,03,17,13,63.00
2016,08,03,17,14,62.10
2016,08,03,17,15,62.00
2016,08,03,17,16,62.00
2016,08,03,17,17,62.00
2016,08,03,17,18,62.00
2016,08,03,17,19,62.00
2016,08,03,17,20,62.00
2016,08,03,17,21,62.00
2016,08,03,17,22,62.00
2016,08,03,17,23,62.00
2016,08,03,17,24,62.00
2016,08,03,17,25,60.30
2016,08,03,17,26,60.00
2016,08,03,17,27,60.00
2016,08,03,17,28,60.00
2016,08,03,17,29,60.00
2016,08,03,17,30,60.00
2016,08,03,17,31,60.00
2016,08,03,17,32,62.00
2016,08,03,17,33,62.00
2016,08,03,17,34,62.00
2016,08,03,17,35,62.00
2016,08,03,17,36,62.00
2016,08,03,17,37,62.00
2016,08,03,17,38,61.70
2016,08,03,17,39,60.00
2016,08,03,17,40,59.10
2016,08,03,17,41,58.00
2016,08,03,17,42,58.00
2016,08,03,17,43,56.20
2016,08,03,17,44,56.00
2016,08,03,17,45,56.00
2016,08,03,17,46,56.00
2016,08,03,17,47,56.00
2016,08,03,17,48,56.00
2016,08,03,17,49,56.00
2016,08,03,17,50,56.00
2016,08,03,17,51,55.30
2016,08,03,17,52,54.00
2016,08,03,17,53,54.00
2016,08,03,17,54,54.00
2016,08,03,17,55,54.00
2016,08,03,17,56,54.00
2016,08,03,17,57,54.00
2016,08,03,17,58,54.00
2016,08,03,17,59,54.00
2016,08,03,18,00,54.00
2016,08,03,18,01,54.00
2016,08,03,18,02,53.70
2016,08,03,18,03,53.00
2016,08,03,18,04,53.00
2016,08,03,18,05,53.00
2016,08,03,18,06,53.00
2016,08,03,18,07,53.00
2016,08,03,18,08,53.00
2016,08,03,18,09,53.00
2016,08,03,18,10,53.00